Find Starlink 32489

NORAD ID: 61893 Int'l Des: 2024-204 Owner: SPXS Country: US Constellation: starlink operational
LEOCIRCULAR

当前视图

正在加载3D地球...

About Starlink 32489

Starlink 32489 (NORAD 61893) is a starlink constellation satellite (v2 mini) launched Nov 9, 2024 by SPXS of US. It operates in LEO, CIRCULAR orbit with a mass of 730.00 kg.

即将过境

Passes for default location (London). Set your location on the main map for personalized predictions.

高度历史

Loading altitude history...

两行轨道根数

1 61893U 24204V 26263.79563747 -.00000667 00000-0 -86017-5 0 9994
2 61893 53.1593 296.2611 0001458 85.4969 274.6200 15.34384687105029
Epoch: Sep 20, 2026 • Age: 13 hours

当前状态

高度 463.3 km
远地点 / 近地点 N/A
速度 7.64 km/s
星下点 2.17°N, 178.96°W
发射日期 Nov 9, 2024
运行时间 1.8 years
类型 internet

技术详情

分类 Payload
质量 730.00 kg
干质量 700.00 kg
长度 0.30 m
跨度 29.00 m
形状 ? Box + pan
制造商 SPXS
平台类型 Starlink V2M
阶段状态 In Orbit
所有者/国家 SPXS/US

Most Searched